Time,TemperatureF,DewpointF,PressureIn,WindDirection,WindDirectionDegrees,WindSpeedMPH,WindSpeedGustMPH,Humidity,HourlyPrecipIn,Conditions,Clouds,dailyrainin,SoftwareType,DateUTC
2013-07-06 00:02:00,67.0,66.0,29.29,North,0,0.0,0.0,97,0.00,,,0.28,,2013-07-06 04:02:00,
2013-07-06 00:12:00,67.0,66.0,29.29,North,0,0.0,0.0,97,0.00,,,0.28,,2013-07-06 04:12:00,
2013-07-06 00:22:00,67.0,66.0,29.29,North,0,0.0,0.0,97,0.00,,,0.28,,2013-07-06 04:22:00,
2013-07-06 00:33:00,67.0,66.0,29.29,North,0,0.0,0.0,97,0.00,,,0.28,,2013-07-06 04:33:00,
2013-07-06 00:43:00,67.0,66.0,29.29,North,0,0.0,0.0,97,0.00,,,0.28,,2013-07-06 04:43:00,
2013-07-06 00:53:00,67.0,66.0,29.29,North,0,0.0,0.0,97,0.00,,,0.28,,2013-07-06 04:53:00,
2013-07-06 01:02:00,67.0,66.0,29.29,North,0,0.0,0.0,97,0.00,,,0.24,,2013-07-06 05:02:00,
2013-07-06 01:12:00,67.0,66.0,29.29,North,0,0.0,0.0,97,0.00,,,0.24,,2013-07-06 05:12:00,
2013-07-06 01:22:00,67.0,66.0,29.29,North,0,0.0,0.0,97,0.00,,,0.24,,2013-07-06 05:22:00,
2013-07-06 01:33:00,67.0,66.0,29.29,North,0,0.0,0.0,97,0.00,,,0.24,,2013-07-06 05:33:00,
2013-07-06 01:42:00,67.0,66.0,29.29,North,0,0.0,0.0,97,0.00,,,0.24,,2013-07-06 05:42:00,
2013-07-06 01:53:00,67.0,66.0,29.29,North,0,0.0,0.0,97,0.00,,,0.24,,2013-07-06 05:53:00,
2013-07-06 02:02:00,67.0,66.0,29.29,North,0,0.0,0.0,97,0.00,,,0.24,,2013-07-06 06:02:00,
2013-07-06 02:12:00,67.0,66.0,29.29,North,0,0.0,0.0,97,0.00,,,0.24,,2013-07-06 06:12:00,
2013-07-06 02:22:00,67.0,66.0,29.29,North,0,0.0,0.0,97,0.00,,,0.24,,2013-07-06 06:22:00,
2013-07-06 02:34:00,67.0,66.0,29.29,North,0,0.0,0.0,97,0.00,,,0.24,,2013-07-06 06:34:00,
2013-07-06 02:43:00,67.0,66.0,29.29,North,0,0.0,0.0,97,0.00,,,0.24,,2013-07-06 06:43:00,
2013-07-06 02:53:00,67.0,66.0,29.29,North,0,0.0,0.0,97,0.00,,,0.24,,2013-07-06 06:53:00,
2013-07-06 03:02:00,67.0,66.0,29.29,North,0,0.0,0.0,97,0.00,,,0.24,,2013-07-06 07:02:00,
2013-07-06 03:12:00,67.0,66.0,29.29,North,0,0.0,0.0,97,0.00,,,0.24,,2013-07-06 07:12:00,
2013-07-06 03:22:00,67.0,66.0,29.29,North,0,0.0,0.0,97,0.00,,,0.24,,2013-07-06 07:22:00,
2013-07-06 03:33:00,67.0,66.0,29.29,North,0,0.0,0.0,97,0.00,,,0.24,,2013-07-06 07:33:00,
2013-07-06 03:44:00,67.0,66.0,29.29,North,0,0.0,0.0,97,0.00,,,0.24,,2013-07-06 07:44:00,
2013-07-06 03:52:00,67.0,66.0,29.29,North,0,0.0,0.0,97,0.00,,,0.24,,2013-07-06 07:52:00,
2013-07-06 04:34:00,67.0,66.0,29.26,North,0,0.0,0.0,97,0.00,,,0.24,,2013-07-06 08:34:00,
2013-07-06 04:43:00,67.0,66.0,29.26,North,0,0.0,0.0,97,0.00,,,0.24,,2013-07-06 08:43:00,
2013-07-06 04:54:00,67.0,66.0,29.26,North,0,0.0,0.0,97,0.00,,,0.24,,2013-07-06 08:54:00,
2013-07-06 05:02:00,67.0,66.0,29.29,North,0,0.0,0.0,97,0.00,,,0.24,,2013-07-06 09:02:00,
2013-07-06 05:11:00,67.0,66.0,29.29,North,0,0.0,0.0,97,0.00,,,0.24,,2013-07-06 09:11:00,
2013-07-06 05:33:00,67.0,66.0,29.29,North,0,0.0,0.0,97,0.00,,,0.24,,2013-07-06 09:33:00,
2013-07-06 05:52:00,67.0,66.0,29.29,North,0,0.0,0.0,97,0.00,,,0.24,,2013-07-06 09:52:00,
2013-07-06 06:02:00,67.0,66.0,29.29,North,0,0.0,0.0,97,0.00,,,0.24,,2013-07-06 10:02:00,
2013-07-06 06:11:00,67.0,66.0,29.29,North,0,0.0,0.0,97,0.00,,,0.24,,2013-07-06 10:11:00,
2013-07-06 06:22:00,67.0,66.0,29.26,North,0,0.0,0.0,97,0.00,,,0.24,,2013-07-06 10:22:00,
2013-07-06 06:33:00,67.0,66.0,29.26,North,0,0.0,0.0,97,0.00,,,0.24,,2013-07-06 10:33:00,
2013-07-06 06:42:00,66.0,65.0,29.29,North,0,0.0,0.0,97,0.00,,,0.24,,2013-07-06 10:42:00,
2013-07-06 06:53:00,66.0,65.0,29.29,North,0,0.0,0.0,97,0.00,,,0.24,,2013-07-06 10:53:00,
2013-07-06 07:01:00,66.0,65.0,29.29,North,0,0.0,0.0,97,0.00,,,0.24,,2013-07-06 11:01:00,
2013-07-06 07:11:00,66.0,65.0,29.29,North,0,0.0,0.0,97,0.00,,,0.24,,2013-07-06 11:11:00,
2013-07-06 07:33:00,67.0,66.0,29.29,North,0,0.0,0.0,97,0.00,,,0.24,,2013-07-06 11:33:00,
2013-07-06 07:43:00,67.0,66.0,29.29,North,0,0.0,0.0,97,0.00,,,0.24,,2013-07-06 11:43:00,
2013-07-06 07:53:00,67.0,66.0,29.29,North,0,0.0,0.0,97,0.00,,,0.24,,2013-07-06 11:53:00,
2013-07-06 08:01:00,67.0,66.0,29.29,North,0,0.0,0.0,97,0.00,,,0.24,,2013-07-06 12:01:00,
2013-07-06 08:12:00,68.0,67.0,29.29,North,8,3.0,4.0,97,0.00,,,0.24,,2013-07-06 12:12:00,
2013-07-06 08:33:00,68.0,67.0,29.29,North,0,0.0,3.0,97,0.00,,,0.24,,2013-07-06 12:33:00,
2013-07-06 08:43:00,68.0,67.0,29.29,North,0,0.0,3.0,97,0.00,,,0.24,,2013-07-06 12:43:00,
2013-07-06 08:52:00,68.0,67.0,29.29,North,0,0.0,3.0,97,0.00,,,0.24,,2013-07-06 12:52:00,
2013-07-06 09:01:00,68.0,67.0,29.29,North,0,0.0,3.0,97,0.00,,,0.24,,2013-07-06 13:01:00,
2013-07-06 09:22:00,68.0,67.0,29.29,North,0,0.0,0.0,97,0.04,,,0.28,,2013-07-06 13:22:00,
2013-07-06 09:33:00,68.0,67.0,29.29,North,0,0.0,0.0,97,0.04,,,0.28,,2013-07-06 13:33:00,
2013-07-06 09:43:00,69.0,68.0,29.32,North,0,0.0,0.0,97,0.04,,,0.28,,2013-07-06 13:43:00,
2013-07-06 09:52:00,69.0,68.0,29.32,North,0,0.0,0.0,97,0.04,,,0.28,,2013-07-06 13:52:00,
2013-07-06 10:12:00,69.0,68.0,29.32,North,0,0.0,0.0,96,0.00,,,0.28,,2013-07-06 14:12:00,
2013-07-06 10:22:00,69.0,68.0,29.32,North,0,0.0,0.0,96,0.00,,,0.28,,2013-07-06 14:22:00,
2013-07-06 10:34:00,69.0,68.0,29.32,North,0,0.0,0.0,96,0.00,,,0.28,,2013-07-06 14:34:00,
2013-07-06 10:42:00,69.0,68.0,29.32,North,0,0.0,0.0,96,0.00,,,0.28,,2013-07-06 14:42:00,
2013-07-06 11:12:00,72.0,69.0,29.29,North,0,0.0,0.0,90,0.00,,,0.28,,2013-07-06 15:12:00,
2013-07-06 11:22:00,73.0,69.0,29.29,North,0,0.0,0.0,86,0.00,,,0.28,,2013-07-06 15:22:00,
2013-07-06 11:43:00,73.0,68.0,29.29,North,0,0.0,4.0,83,0.00,,,0.28,,2013-07-06 15:43:00,
2013-07-06 11:44:00,75.0,68.0,29.29,North,0,0.0,5.0,78,0.00,,,0.28,,2013-07-06 15:44:00,
2013-07-06 11:53:00,73.0,68.0,29.29,North,0,0.0,4.0,83,0.00,,,0.28,,2013-07-06 15:53:00,
2013-07-06 12:07:00,75.0,68.0,29.29,North,0,0.0,5.0,78,0.00,,,0.28,,2013-07-06 16:07:00,
2013-07-06 12:15:00,75.0,68.0,29.29,North,0,0.0,5.0,78,0.00,,,0.28,,2013-07-06 16:15:00,
2013-07-06 13:41:00,73.0,65.0,29.29,North,0,0.0,9.0,77,0.20,,,0.47,,2013-07-06 17:41:00,
2013-07-06 14:09:00,76.0,71.0,29.29,North,0,0.0,5.0,85,0.20,,,0.47,,2013-07-06 18:09:00,
2013-07-06 14:35:00,73.0,65.0,29.29,North,0,0.0,9.0,77,0.20,,,0.47,,2013-07-06 18:35:00,
2013-07-06 15:09:00,67.0,65.0,29.29,North,0,0.0,4.0,93,0.08,,,0.51,,2013-07-06 19:09:00,
2013-07-06 15:15:00,67.0,65.0,29.29,North,0,0.0,4.0,93,0.08,,,0.51,,2013-07-06 19:15:00,
2013-07-06 15:25:00,66.0,64.0,29.29,North,0,0.0,5.0,94,0.24,,,0.59,,2013-07-06 19:25:00,
2013-07-06 15:31:00,66.0,64.0,29.29,North,0,0.0,5.0,94,0.24,,,0.59,,2013-07-06 19:31:00,
2013-07-06 15:45:00,66.0,64.0,29.29,North,0,0.0,5.0,94,0.24,,,0.59,,2013-07-06 19:45:00,
2013-07-06 15:54:00,66.0,65.0,29.29,North,0,0.0,3.0,96,0.63,,,0.98,,2013-07-06 19:54:00,
2013-07-06 16:16:00,66.0,65.0,29.29,North,0,0.0,0.0,96,0.59,,,1.06,,2013-07-06 20:16:00,
2013-07-06 16:25:00,67.0,66.0,29.29,North,0,0.0,0.0,96,0.43,,,1.10,,2013-07-06 20:25:00,
2013-07-06 16:32:00,67.0,66.0,29.29,North,0,0.0,0.0,96,0.43,,,1.10,,2013-07-06 20:32:00,
2013-07-06 16:47:00,68.0,65.0,29.29,WNW,301,3.0,4.0,90,0.16,,,1.10,,2013-07-06 20:47:00,
2013-07-06 17:02:00,67.0,65.0,29.29,WNW,298,3.0,5.0,93,0.08,,,1.10,,2013-07-06 21:02:00,
2013-07-06 17:14:00,67.0,65.0,29.29,WNW,298,3.0,5.0,93,0.08,,,1.10,,2013-07-06 21:14:00,
2013-07-06 17:44:00,67.0,66.0,29.29,North,0,0.0,0.0,95,0.08,,,1.18,,2013-07-06 21:44:00,
2013-07-06 18:00:00,67.0,66.0,29.29,North,0,0.0,5.0,96,0.12,,,1.26,,2013-07-06 22:00:00,
2013-07-06 18:16:00,67.0,66.0,29.29,North,0,0.0,5.0,96,0.12,,,1.26,,2013-07-06 22:16:00,
2013-07-06 18:25:00,67.0,66.0,29.29,North,0,0.0,5.0,96,0.12,,,1.26,,2013-07-06 22:25:00,
2013-07-06 18:34:00,67.0,66.0,29.29,North,0,0.0,5.0,96,0.12,,,1.26,,2013-07-06 22:34:00,
2013-07-06 18:45:00,66.0,65.0,29.29,NW,310,3.0,5.0,97,0.12,,,1.30,,2013-07-06 22:45:00,
2013-07-06 19:09:00,66.0,65.0,29.29,North,0,0.0,4.0,97,0.24,,,1.46,,2013-07-06 23:09:00,
2013-07-06 19:23:00,66.0,65.0,29.29,North,0,0.0,0.0,97,0.24,,,1.54,,2013-07-06 23:23:00,
2013-07-06 19:33:00,66.0,65.0,29.29,North,0,0.0,0.0,97,0.24,,,1.54,,2013-07-06 23:33:00,
2013-07-06 19:53:00,66.0,65.0,29.29,North,0,0.0,0.0,97,0.28,,,1.69,,2013-07-06 23:53:00,
2013-07-06 20:08:00,65.0,64.0,29.29,North,0,0.0,0.0,97,0.35,,,1.89,,2013-07-07 00:08:00,
2013-07-06 20:25:00,65.0,64.0,29.29,North,0,0.0,3.0,97,0.39,,,1.89,,2013-07-07 00:25:00,
2013-07-06 20:45:00,65.0,64.0,29.29,North,0,0.0,0.0,97,0.35,,,1.89,,2013-07-07 00:45:00,
2013-07-06 20:55:00,65.0,64.0,29.29,North,0,0.0,0.0,97,0.35,,,1.89,,2013-07-07 00:55:00,
2013-07-06 21:01:00,65.0,64.0,29.29,North,0,0.0,0.0,97,0.35,,,1.89,,2013-07-07 01:01:00,
2013-07-06 21:47:00,65.0,64.0,29.29,North,0,0.0,0.0,97,0.04,,,1.93,,2013-07-07 01:47:00,
2013-07-06 22:15:00,65.0,64.0,29.29,North,0,0.0,0.0,97,0.04,,,1.93,,2013-07-07 02:15:00,
2013-07-06 22:32:00,65.0,64.0,29.29,North,0,0.0,0.0,97,0.04,,,1.93,,2013-07-07 02:32:00,